User: anonymous   Login
Location: Ladrillo (historical)
(32.8195°N, 117.2231°W)
Time: 17:37:52
(UTC+00:00)
Language:

FO-99 - Orbit

View from above orbital plane
View from above orbital plane
View from above satellite
View from above satellite

Ground track
Ground track

The orbit data is extracted from the following two-line orbital elements,

1 43937U 19003F   21105.68416260  .00001865  00000-0  75984-4 0  9998
2 43937  97.1840 151.3667 0021920 232.2847 127.6405 15.25467285124690
Epoch (UTC): 15 April 2021 16:25:11
Eccentricity: 0.0021920
inclination: 97.1840°
perigee height: 474 km
apogee height: 504 km
right ascension of ascending node: 151.3667°
argument of perigee: 232.2847°
revolutions per day: 15.25467285
mean anomaly at epoch: 127.6405°
orbit number at epoch: 12469

The dashed part of the orbit path shows where the satellite is in the earth's shadow,  

DLR